Regional Weather Roundup
Issued by NWS Green Bay, WI

Home | Current Version | Previous Version | Graphics & Text | Print | Product List | Glossary Off
Versions: 1 2 3 4 5 6 7 8 9 10 11 12 13 14 15 16 17 18 19 20 21 22 23 24 25 26 27 28 29 30 31 32 33 34 35 36 37 38 39 40 41 42 43 44 45 46 47 48 49 50

000
ASUS43 KGRB 250700
RWRGRB

NORTH-CENTRAL AND NORTHEAST WISCONSIN REGIONAL WEATHER ROUNDUP
NATIONAL WEATHER SERVICE GREEN BAY WI
200 AM CDT SAT MAR 25 2017

WIZ005-009-010>012-018-019-250800-
NORTH CENTRAL WISCONSIN

CITY           SKY/WX    TMP DP  RH WIND       PRES   REMARKS
IRONWOOD       CLOUDY    32  30  92 E8        30.25R
MANITOWISH WTR NOT AVBL
ARBOR VITAE    NOT AVBL
EAGLE RIVER    NOT AVBL
LAND O LAKES   NOT AVBL
RHINELANDER    CLOUDY    34  31  88 NE8       30.21R
PHILLIPS       NOT AVBL
ANTIGO         NOT AVBL
TOMAHAWK       NOT AVBL
MERRILL        NOT AVBL
$$

WIZ013-073-250800-
NORTHEAST WISCONSIN

CITY           SKY/WX    TMP DP  RH WIND       PRES   REMARKS
IRON MOUNTAIN  CLOUDY    34  29  82 E7        30.22R
MARINETTE        N/A    N/A N/A N/A MISG        N/A
$$

WIZ017-030-035>037-045-250800-
CENTRAL WISCONSIN

CITY           SKY/WX    TMP DP  RH WIND       PRES   REMARKS
MEDFORD        NOT AVBL
WAUSAU         CLOUDY    34  31  88 NE9       30.16F
MOSINEE        NOT AVBL
MARSHFIELD     CLOUDY    35  32  88 E16       30.13F
WISC RAPIDS    CLOUDY    35  34  96 E10G22    30.16F
STEVENS POINT  NOT AVBL
WAUPACA        NOT AVBL
SHAWANO        NOT AVBL
CLINTONVILLE   NOT AVBL
WAUTOMA        CLOUDY    35  33  92 NE12      30.16S
$$

WIZ038-039-048-051-250800-
FOX VALLEY

CITY           SKY/WX    TMP DP  RH WIND       PRES   REMARKS
NWS GREEN BAY  CLOUDY    35  34  96 NE17      30.19F
APPLETON       NOT AVBL
OSHKOSH        CLOUDY    35  33  92 NE15      30.14F
FOND DU LAC    CLOUDY    37  32  82 NE13G21   30.13F
$$

WIZ022-050-052-250800-
EAST CENTRAL WISCONSIN

CITY           SKY/WX    TMP DP  RH WIND       PRES   REMARKS
EPHRAIM        NOT AVBL
WASHINGTON ISL NOT AVBL
STURGEON BAY   CLOUDY    35  32  88 NE10      30.20F
MANITOWOC      NOT AVBL
SHEBOYGAN      CLOUDY    36  34  92 NE17      30.13F
$$

LMZ563-521-522-541>543-250800-
LAKESHORE

STATION/POSITION TIME  TEMP    WIND        PRES    VSBY  WAVE
                       AIR SEA DIR/SP/G                  HT/PER
                 (UTC) (F)     (DEG/KT/KT) (MB)    (MI)  (FT/S)
SHEBOYGAN LKSHOR 0600   36      10/ 18/ 19 1021.5F
KEWAUNEE LKSHORE 0630   35      30/ 10/ 13 1021.7F
NORTHPORT PIER   0640   34      20/  4/  7 1023.4R
SISTER BAY LKSHO 0635   35      20/  6/  7   N/A
CHAMBERS ISLAND  0640   33      10/ 10/ 12 1022.7S
MENOMINEE LKSHOR 0630   35      10/ 13/ 15 1022.4S
$$




USA.gov is the U.S. government's official web portal to all federal, state and local government web resources and services.